Location: Anna District 4 Election Precinct
(37.4833°N, 89.2195°W)
Time: 00:54:18
(UTC+00:00)

NOAA 12 - Pass Details

Date: 07 March 2021
Orbit: 795 x 815 km, 98.5° (Epoch: 11 April)

Event Time Altitude Azimuth Distance (km) Brightness Sun altitude
Rises 00:48:26 0° 215° (SW) 3,313 7.8 -11.2°
Reaches altitude 10° 00:52:07 10° 241° (WSW) 2,392 7.5 -11.9°
Maximum altitude 00:54:33 13° 269° (W) 2,176 7.7 -12.4°
Drops below altitude 10° 00:57:01 10° 297° (WNW) 2,404 7.7 -12.9°
Sets 01:00:46 0° 324° (NW) 3,345 7.9 -13.7°
